ANA322 RJNT-RJTT

Flight info

Callsign ANA322
Flight time 0h 53m
Altitude 27000
Route HISUI Y31 GUSGI Y10 GODIN
Aircraft B738/M-SDE2E3FGHIRWXY/LB1

Departure

Time 2026-04-24 12:37
Airport Toyama Kitokito Airport (RJNT)

Arrival

Time 2026-04-24 13:30
Airport Tokyo Haneda International Airport (RJTT)
Time Latitude Longitude Altitude Speed Heading
2026-04-24 12:25 36.64304 137.18822 86 ft 0 kts 150°
2026-04-24 12:26 36.64313 137.18816 86 ft 2 kts 150°
2026-04-24 12:26 36.64326 137.18806 86 ft 2 kts 150°
2026-04-24 12:26 36.64336 137.18800 86 ft 0 kts 150°
2026-04-24 12:27 36.64347 137.18790 86 ft 2 kts 123°
2026-04-24 12:27 36.64352 137.18773 86 ft 2 kts 93°
2026-04-24 12:27 36.64350 137.18753 86 ft 2 kts 63°
2026-04-24 12:27 36.64340 137.18739 86 ft 2 kts 33°
2026-04-24 12:28 36.64332 137.18733 86 ft 1 kts 15°
2026-04-24 12:28 36.64325 137.18732 86 ft 0 kts 13°
2026-04-24 12:32 36.64326 137.18733 86 ft 0 kts 14°
2026-04-24 12:32 36.64331 137.18735 86 ft 1 kts 14°
2026-04-24 12:32 36.64349 137.18739 86 ft 3 kts
2026-04-24 12:32 36.64376 137.18730 86 ft 4 kts 327°
2026-04-24 12:33 36.64395 137.18707 86 ft 3 kts 306°
2026-04-24 12:33 36.64408 137.18672 86 ft 5 kts 279°
2026-04-24 12:33 36.64397 137.18628 86 ft 5 kts 233°
2026-04-24 12:33 36.64361 137.18597 86 ft 7 kts 202°
2026-04-24 12:34 36.64307 137.18581 86 ft 8 kts 192°
2026-04-24 12:34 36.64240 137.18561 86 ft 10 kts 193°
2026-04-24 12:34 36.64166 137.18539 86 ft 11 kts 193°
2026-04-24 12:34 36.64090 137.18510 86 ft 11 kts 212°
2026-04-24 12:35 36.64035 137.18454 86 ft 7 kts 210°
2026-04-24 12:35 36.63988 137.18460 86 ft 7 kts 115°
2026-04-24 12:35 36.64016 137.18497 86 ft 5 kts
2026-04-24 12:35 36.64037 137.18500 86 ft 2 kts 13°
2026-04-24 12:36 36.64043 137.18503 86 ft 3 kts 13°
2026-04-24 12:36 36.64076 137.18512 86 ft 9 kts 13°
2026-04-24 12:36 36.64415 137.18613 86 ft 89 kts 13°
2026-04-24 12:36 36.65247 137.18863 87 ft 154 kts 14°
2026-04-24 12:37 36.66378 137.19208 476 ft 175 kts 13°
2026-04-24 12:37 36.67591 137.19572 994 ft 185 kts 14°
2026-04-24 12:37 36.68885 137.19948 1629 ft 196 kts 14°
2026-04-24 12:37 36.70211 137.20296 2335 ft 202 kts 13°
2026-04-24 12:38 36.71698 137.20264 2741 ft 226 kts 354°
2026-04-24 12:38 36.73252 137.19952 3122 ft 228 kts 354°
2026-04-24 12:38 36.74814 137.19665 3526 ft 226 kts 355°
2026-04-24 12:39 36.78971 137.21765 4788 ft 243 kts 40°
2026-04-24 12:39 36.80271 137.23160 5353 ft 252 kts 40°
2026-04-24 12:39 36.81603 137.24623 5929 ft 258 kts 40°
2026-04-24 12:40 36.82951 137.26132 6504 ft 264 kts 41°
2026-04-24 12:40 36.84320 137.27693 7152 ft 266 kts 41°
2026-04-24 12:40 36.85692 137.29259 7774 ft 269 kts 40°
2026-04-24 12:40 36.87102 137.30838 8371 ft 272 kts 39°
2026-04-24 12:41 36.88523 137.32410 8945 ft 275 kts 39°
2026-04-24 12:41 36.89967 137.33998 9506 ft 278 kts 39°
2026-04-24 12:41 36.91442 137.35619 9898 ft 286 kts 39°
2026-04-24 12:41 36.92958 137.37282 10073 ft 295 kts 38°
2026-04-24 12:42 36.94535 137.39012 10387 ft 311 kts 38°
2026-04-24 12:42 36.96206 137.40848 10748 ft 320 kts 38°
2026-04-24 12:42 36.97893 137.42705 11173 ft 324 kts 38°
2026-04-24 12:42 36.99588 137.44571 11600 ft 327 kts 38°
2026-04-24 12:43 37.01295 137.46452 12030 ft 331 kts 38°
2026-04-24 12:43 37.03046 137.48363 12483 ft 334 kts 35°
2026-04-24 12:43 37.04963 137.50067 12949 ft 337 kts 30°
2026-04-24 12:43 37.06924 137.51651 13471 ft 340 kts 28°
2026-04-24 12:44 37.08927 137.53236 13997 ft 346 kts 28°
2026-04-24 12:44 37.10962 137.54842 14649 ft 348 kts 28°
2026-04-24 12:44 37.13037 137.56476 15232 ft 352 kts 28°
2026-04-24 12:44 37.15121 137.58116 15806 ft 355 kts 28°
2026-04-24 12:45 37.17208 137.59761 16361 ft 359 kts 28°
2026-04-24 12:45 37.19328 137.61432 16903 ft 363 kts 28°
2026-04-24 12:45 37.21465 137.63118 17429 ft 366 kts 28°
2026-04-24 12:45 37.23632 137.64828 17990 ft 369 kts 28°
2026-04-24 12:46 37.25801 137.66540 18553 ft 374 kts 28°
2026-04-24 12:46 37.28037 137.68306 19165 ft 379 kts 27°
2026-04-24 12:46 37.30272 137.70073 19719 ft 385 kts 27°
2026-04-24 12:46 37.32552 137.71876 20274 ft 390 kts 27°
2026-04-24 12:47 37.34839 137.73686 20805 ft 395 kts 27°
2026-04-24 12:47 37.37183 137.75543 21391 ft 401 kts 27°
2026-04-24 12:47 37.39547 137.77417 21962 ft 407 kts 27°
2026-04-24 12:47 37.41943 137.79318 22519 ft 413 kts 27°
2026-04-24 12:48 37.44393 137.81264 23061 ft 418 kts 27°
2026-04-24 12:48 37.46859 137.83226 23610 ft 424 kts 27°
2026-04-24 12:48 37.49262 137.85388 24153 ft 433 kts 34°
2026-04-24 12:48 37.51489 137.87990 24680 ft 443 kts 43°
2026-04-24 12:49 37.53380 137.91075 25106 ft 452 kts 56°
2026-04-24 12:49 37.54791 137.94663 25156 ft 460 kts 69°
2026-04-24 12:49 37.55554 137.98602 25153 ft 461 kts 85°
2026-04-24 12:49 37.55468 138.02588 25169 ft 461 kts 100°
2026-04-24 12:50 37.54883 138.06601 25164 ft 467 kts 105°
2026-04-24 12:50 37.54106 138.10597 25154 ft 467 kts 107°
2026-04-24 12:50 37.53273 138.14502 25155 ft 465 kts 108°
2026-04-24 12:50 37.52387 138.18411 25173 ft 463 kts 109°
2026-04-24 12:51 37.51467 138.22298 25182 ft 462 kts 110°
2026-04-24 12:51 37.50521 138.26175 25182 ft 462 kts 110°
2026-04-24 12:51 37.49556 138.30041 25184 ft 465 kts 111°
2026-04-24 12:51 37.48565 138.33952 25182 ft 466 kts 111°
2026-04-24 12:52 37.47573 138.37826 25182 ft 465 kts 111°
2026-04-24 12:52 37.46580 138.41670 25183 ft 464 kts 111°
2026-04-24 12:52 37.45582 138.45508 25183 ft 464 kts 111°
2026-04-24 12:52 37.44567 138.49391 25183 ft 464 kts 111°
2026-04-24 12:53 37.43562 138.53223 25183 ft 464 kts 111°
2026-04-24 12:53 37.42542 138.57095 25183 ft 464 kts 111°
2026-04-24 12:53 37.41518 138.60974 25183 ft 464 kts 111°
2026-04-24 12:53 37.40504 138.64804 25183 ft 464 kts 111°
2026-04-24 12:54 37.39485 138.68648 25183 ft 464 kts 112°
2026-04-24 12:54 37.38465 138.72499 25183 ft 464 kts 112°
2026-04-24 12:54 37.37445 138.76349 25183 ft 464 kts 112°
2026-04-24 12:54 37.36433 138.80179 25183 ft 466 kts 112°
2026-04-24 12:55 37.35406 138.84061 25183 ft 466 kts 112°
2026-04-24 12:55 37.34376 138.87946 25183 ft 466 kts 112°
2026-04-24 12:55 37.33355 138.91791 25182 ft 465 kts 112°
2026-04-24 12:55 37.32334 138.95628 25182 ft 464 kts 112°
2026-04-24 12:56 37.31307 138.99480 25183 ft 464 kts 112°
2026-04-24 12:56 37.30283 139.03314 25183 ft 464 kts 112°
2026-04-24 12:56 37.29252 139.07170 25183 ft 464 kts 112°
2026-04-24 12:56 37.28233 139.10973 25183 ft 464 kts 112°
2026-04-24 12:57 37.27197 139.14835 25183 ft 464 kts 112°
2026-04-24 12:57 37.26160 139.18689 25183 ft 464 kts 112°
2026-04-24 12:57 37.25135 139.22499 25183 ft 464 kts 112°
2026-04-24 12:57 37.24101 139.26337 25183 ft 465 kts 114°
2026-04-24 12:58 37.23067 139.30162 25184 ft 467 kts 115°
2026-04-24 12:58 37.22006 139.34085 25183 ft 469 kts 115°
2026-04-24 12:58 37.20964 139.37929 25168 ft 469 kts 115°
2026-04-24 12:58 37.19914 139.41803 25100 ft 469 kts 115°
2026-04-24 12:59 37.18861 139.45682 25031 ft 468 kts 115°
2026-04-24 12:59 37.17810 139.49548 25047 ft 465 kts 115°
2026-04-24 12:59 37.16766 139.53381 25118 ft 466 kts 115°
2026-04-24 12:59 37.15723 139.57198 25130 ft 469 kts 115°
2026-04-24 13:00 37.14662 139.61081 25127 ft 469 kts 115°
2026-04-24 13:00 37.13598 139.64972 25077 ft 469 kts 115°
2026-04-24 13:00 37.12510 139.68749 25043 ft 462 kts 121°
2026-04-24 13:00 37.10910 139.72150 24858 ft 447 kts 134°
2026-04-24 13:01 37.09057 139.75232 24631 ft 440 kts 136°
2026-04-24 13:01 37.07193 139.78271 24373 ft 435 kts 135°
2026-04-24 13:01 37.05384 139.81265 24148 ft 434 kts 135°
2026-04-24 13:01 37.03590 139.84283 23964 ft 434 kts 134°
2026-04-24 13:02 37.01794 139.87346 23804 ft 434 kts 134°
2026-04-24 13:02 37.00016 139.90405 23656 ft 433 kts 133°
2026-04-24 13:02 36.98274 139.93420 23507 ft 433 kts 133°
2026-04-24 13:02 36.96504 139.96498 23355 ft 431 kts 133°
2026-04-24 13:03 36.94761 139.99535 23204 ft 430 kts 133°
2026-04-24 13:03 36.93026 140.02560 23021 ft 431 kts 132°
2026-04-24 13:03 36.91287 140.05595 22810 ft 431 kts 132°
2026-04-24 13:03 36.89536 140.08655 22595 ft 429 kts 132°
2026-04-24 13:04 36.87809 140.11675 22380 ft 426 kts 131°
2026-04-24 13:04 36.86102 140.14658 22167 ft 424 kts 131°
2026-04-24 13:04 36.84370 140.17680 21916 ft 424 kts 131°
2026-04-24 13:04 36.82665 140.20657 21550 ft 419 kts 131°
2026-04-24 13:05 36.81011 140.23546 21175 ft 413 kts 130°
2026-04-24 13:05 36.79284 140.26396 20782 ft 408 kts 135°
2026-04-24 13:05 36.77327 140.28902 20285 ft 399 kts 144°
2026-04-24 13:05 36.75119 140.30934 19823 ft 386 kts 155°
2026-04-24 13:06 36.72733 140.32330 19500 ft 378 kts 168°
2026-04-24 13:06 36.70203 140.32921 19271 ft 375 kts 183°
2026-04-24 13:06 36.67612 140.32933 19029 ft 370 kts 189°
2026-04-24 13:06 36.65068 140.32703 18755 ft 367 kts 191°
2026-04-24 13:07 36.62510 140.32371 18376 ft 366 kts 192°
2026-04-24 13:07 36.59996 140.31967 17998 ft 364 kts 193°
2026-04-24 13:07 36.57542 140.31528 17626 ft 361 kts 194°
2026-04-24 13:07 36.55045 140.31056 17259 ft 358 kts 194°
2026-04-24 13:08 36.52623 140.30586 16938 ft 356 kts 194°
2026-04-24 13:08 36.50177 140.30106 16641 ft 354 kts 194°
2026-04-24 13:08 36.47742 140.29622 16366 ft 353 kts 194°
2026-04-24 13:09 36.42946 140.28667 15822 ft 351 kts 193°
2026-04-24 13:09 36.40553 140.28191 15571 ft 349 kts 193°
2026-04-24 13:09 36.38155 140.27712 15299 ft 349 kts 193°
2026-04-24 13:09 36.35742 140.27231 15019 ft 347 kts 193°
2026-04-24 13:10 36.33376 140.26759 14744 ft 346 kts 193°
2026-04-24 13:10 36.31003 140.26286 14468 ft 344 kts 193°
2026-04-24 13:10 36.28650 140.25816 14167 ft 344 kts 193°
2026-04-24 13:10 36.26309 140.25351 13841 ft 342 kts 192°
2026-04-24 13:11 36.23975 140.24887 13515 ft 340 kts 192°
2026-04-24 13:11 36.21641 140.24422 13181 ft 339 kts 192°
2026-04-24 13:11 36.19313 140.23959 12763 ft 338 kts 192°
2026-04-24 13:11 36.17017 140.23503 12538 ft 337 kts 192°
2026-04-24 13:12 36.14703 140.23044 12252 ft 339 kts 192°
2026-04-24 13:12 36.12351 140.22577 11918 ft 338 kts 192°
2026-04-24 13:12 36.10051 140.22121 11596 ft 337 kts 192°
2026-04-24 13:12 36.07743 140.21664 11366 ft 336 kts 192°
2026-04-24 13:13 36.05438 140.21207 11182 ft 336 kts 192°
2026-04-24 13:13 36.03119 140.20761 10995 ft 337 kts 189°
2026-04-24 13:13 36.00777 140.20683 10935 ft 338 kts 178°
2026-04-24 13:13 35.98463 140.21083 10943 ft 341 kts 169°
2026-04-24 13:14 35.96164 140.21855 10938 ft 342 kts 165°
2026-04-24 13:14 35.93829 140.22357 10936 ft 339 kts 178°
2026-04-24 13:14 35.91461 140.22464 10942 ft 339 kts 181°
2026-04-24 13:14 35.89106 140.22514 10937 ft 339 kts 181°
2026-04-24 13:15 35.86773 140.22559 10900 ft 340 kts 181°
2026-04-24 13:15 35.84415 140.22600 10709 ft 340 kts 181°
2026-04-24 13:15 35.82040 140.22574 10511 ft 337 kts 187°
2026-04-24 13:15 35.79771 140.22197 10314 ft 325 kts 192°
2026-04-24 13:16 35.77607 140.21747 10171 ft 304 kts 192°
2026-04-24 13:16 35.75533 140.21307 9939 ft 303 kts 192°
2026-04-24 13:16 35.73473 140.20866 9655 ft 296 kts 192°
2026-04-24 13:16 35.71480 140.20416 9338 ft 293 kts 192°
2026-04-24 13:17 35.69457 140.19946 9019 ft 293 kts 192°
2026-04-24 13:17 35.67471 140.19479 8754 ft 291 kts 192°
2026-04-24 13:17 35.65497 140.19011 8545 ft 291 kts 192°
2026-04-24 13:17 35.63490 140.18533 8332 ft 291 kts 192°
2026-04-24 13:18 35.61500 140.18056 8118 ft 290 kts 192°
2026-04-24 13:18 35.59528 140.17580 8015 ft 288 kts 192°
2026-04-24 13:18 35.57552 140.17101 8025 ft 290 kts 192°
2026-04-24 13:18 35.55583 140.16623 8018 ft 290 kts 192°
2026-04-24 13:19 35.53605 140.16144 8008 ft 290 kts 192°
2026-04-24 13:19 35.51627 140.15663 7739 ft 283 kts 192°
2026-04-24 13:19 35.49731 140.15202 7453 ft 274 kts 192°
2026-04-24 13:19 35.47919 140.14758 7208 ft 261 kts 192°
2026-04-24 13:20 35.46165 140.14328 7012 ft 249 kts 192°
2026-04-24 13:20 35.44492 140.13915 6801 ft 243 kts 192°
2026-04-24 13:20 35.42837 140.13504 6483 ft 243 kts 192°
2026-04-24 13:20 35.41204 140.13092 6110 ft 241 kts 192°
2026-04-24 13:21 35.39567 140.12674 5666 ft 240 kts 192°
2026-04-24 13:21 35.37936 140.12248 5270 ft 238 kts 192°
2026-04-24 13:21 35.36339 140.11826 4909 ft 235 kts 192°
2026-04-24 13:21 35.34752 140.11398 4631 ft 234 kts 192°
2026-04-24 13:22 35.33143 140.10962 4429 ft 234 kts 192°
2026-04-24 13:22 35.31552 140.10532 4198 ft 234 kts 192°
2026-04-24 13:22 35.29985 140.10101 4125 ft 234 kts 196°
2026-04-24 13:22 35.28576 140.09067 4120 ft 237 kts 234°
2026-04-24 13:23 35.27942 140.07254 4135 ft 228 kts 267°
2026-04-24 13:23 35.28083 140.05376 4141 ft 221 kts 290°
2026-04-24 13:23 35.28740 140.03688 4134 ft 217 kts 309°
2026-04-24 13:23 35.29721 140.02280 4140 ft 216 kts 316°
2026-04-24 13:24 35.30760 140.00972 4132 ft 215 kts 316°
2026-04-24 13:24 35.31791 139.99643 4134 ft 215 kts 315°
2026-04-24 13:24 35.32800 139.98329 4127 ft 210 kts 318°
2026-04-24 13:24 35.33870 139.97086 4138 ft 211 kts 319°
2026-04-24 13:25 35.34951 139.95850 4134 ft 211 kts 317°
2026-04-24 13:25 35.35978 139.94621 4148 ft 200 kts 319°
2026-04-24 13:25 35.36964 139.93455 4124 ft 194 kts 319°
2026-04-24 13:25 35.37968 139.92346 4136 ft 193 kts 322°
2026-04-24 13:26 35.38995 139.91263 3939 ft 196 kts 322°
2026-04-24 13:26 35.40082 139.90294 3641 ft 189 kts 331°
2026-04-24 13:26 35.41194 139.89517 3386 ft 181 kts 333°
2026-04-24 13:26 35.42284 139.88771 3106 ft 171 kts 333°
2026-04-24 13:27 35.43281 139.88077 2835 ft 161 kts 332°
2026-04-24 13:27 35.44228 139.87411 2583 ft 157 kts 332°
2026-04-24 13:27 35.45144 139.86765 2261 ft 150 kts 332°
2026-04-24 13:27 35.46043 139.86130 1912 ft 147 kts 332°
2026-04-24 13:28 35.46915 139.85513 1698 ft 141 kts 332°
2026-04-24 13:28 35.47761 139.84914 1552 ft 140 kts 332°
2026-04-24 13:28 35.48600 139.84322 1350 ft 141 kts 333°
2026-04-24 13:28 35.49460 139.83711 1139 ft 142 kts 332°
2026-04-24 13:29 35.50303 139.83096 945 ft 143 kts 332°
2026-04-24 13:29 35.51163 139.82466 737 ft 144 kts 333°
2026-04-24 13:29 35.52031 139.81862 548 ft 144 kts 334°
2026-04-24 13:29 35.52904 139.81262 340 ft 145 kts 333°
2026-04-24 13:30 35.53774 139.80635 173 ft 144 kts 334°
2026-04-24 13:30 35.54621 139.80049 46 ft 128 kts 332°
2026-04-24 13:30 35.55212 139.79634 44 ft 64 kts 329°
2026-04-24 13:30 35.55510 139.79422 44 ft 43 kts 330°
2026-04-24 13:31 35.55725 139.79225 44 ft 34 kts 308°
2026-04-24 13:31 35.55788 139.79109 44 ft 5 kts 290°
2026-04-24 13:31 35.55793 139.79069 44 ft 5 kts 263°
2026-04-24 13:31 35.55772 139.79013 44 ft 9 kts 238°
2026-04-24 13:32 35.55736 139.78937 44 ft 11 kts 243°
2026-04-24 13:32 35.55692 139.78842 44 ft 13 kts 238°
2026-04-24 13:32 35.55649 139.78743 44 ft 11 kts 256°
2026-04-24 13:32 35.55675 139.78683 44 ft 6 kts 321°
2026-04-24 13:33 35.55687 139.78661 44 ft 2 kts 247°
2026-04-24 13:33 35.55678 139.78636 44 ft 3 kts 242°
2026-04-24 13:33 35.55667 139.78613 44 ft 2 kts 239°
2026-04-24 13:33 35.55653 139.78587 44 ft 5 kts 240°
2026-04-24 13:34 35.55640 139.78558 44 ft 0 kts 240°